This is the latest recevied weather packets stored in our database for station/object VK2HN. If no packets are shown the sender has not sent any weather packets the latest 10 day(s).
| Time | Temp. | Humidity | Pressure | Rain* | Wind** | Luminosity | Snow |
|---|---|---|---|---|---|---|---|
| 1777600551 | 22.78° C | 77% | 1029.2 hPa | 0 mm | - | - | - |
| 1777600251 | 22.78° C | 76% | 1029.3 hPa | 0 mm | - | - | - |
| 1777599951 | 22.78° C | 76% | 1029.5 hPa | 0 mm | - | - | - |
| 1777599651 | 22.22° C | 78% | 1029.6 hPa | 0 mm | - | - | - |
| 1777599351 | 21.67° C | 82% | 1029.7 hPa | 0 mm | - | - | - |
| 1777599051 | 21.11° C | 82% | 1029.8 hPa | 0 mm | - | - | - |
| 1777598751 | 21.11° C | 86% | 1029.9 hPa | 0 mm | - | - | - |
| 1777598452 | 20° C | 86% | 1030.1 hPa | 0 mm | - | - | - |
| 1777598151 | 20° C | 86% | 1030.2 hPa | 0 mm | - | - | - |
| 1777597851 | 20° C | 87% | 1030.3 hPa | 0 mm | - | - | - |
| 1777597551 | 20° C | 88% | 1030.5 hPa | 0 mm | - | - | - |
| 1777597251 | 19.44° C | 88% | 1030.5 hPa | 0 mm | - | - | - |
| 1777596951 | 19.44° C | 89% | 1030.5 hPa | 0 mm | - | - | - |
| 1777596651 | 19.44° C | 90% | 1030.5 hPa | 0 mm | - | - | - |
| 1777596351 | 18.89° C | 90% | 1030.6 hPa | 0 mm | - | - | - |
| 1777596051 | 18.89° C | 90% | 1030.6 hPa | 0 mm | - | - | - |
| 1777595751 | 18.89° C | 91% | 1030.6 hPa | 0 mm | - | - | - |
| 1777595451 | 18.33° C | 91% | 1030.7 hPa | 0 mm | - | - | - |
| 1777595152 | 18.33° C | 92% | 1030.8 hPa | 0 mm | - | - | - |
| 1777594852 | 18.33° C | 93% | 1030.7 hPa | 0 mm | - | - | - |
| 1777594552 | 17.78° C | 93% | 1030.7 hPa | 0 mm | - | - | - |
| 1777594252 | 17.78° C | 93% | 1030.8 hPa | 0 mm | - | - | - |
| 1777593952 | 17.78° C | 94% | 1030.7 hPa | 0 mm | - | - | - |
| 1777593652 | 17.22° C | 95% | 1030.8 hPa | 0 mm | - | - | - |
| 1777593352 | 17.22° C | 96% | 1030.7 hPa | 0 mm | - | - | - |
* Rain latest hour (hover to see other rain measurements)
** Current wind speed in m/s (hover to see current wind gust speed)